Location: Kumla
(59.1265°N, 15.1401°E)
Time: 15:45:32
(UTC+01:00)

A-11 Canister half - Pass Details

Date: 12 December 2023
Orbit: 1512 x 1687 km, 47.2° (Epoch: 25 February)

Event Time Altitude Azimuth Distance (km) Brightness Sun altitude
Rises 02:20:20 0° 264° (W) 4,767 - -45.5°
Reaches altitude 10° 02:23:38 10° 257° (WSW) 3,807 - -45.2°
Maximum altitude 02:32:18 39° 194° (SSW) 2,296 - -44.3°
Exits shadow 02:38:28 20° 140° (SE) 3,191 10.6 -43.6°
Drops below altitude 10° 02:41:13 10° 131° (SE) 3,919 11.2 -43.3°
Sets 02:44:40 0° 124° (SE) 4,921 11.9 -43.0°
